This is the latest recevied weather packets stored in our database for station/object WX5HOT. If no packets are shown the sender has not sent any weather packets the latest 10 day(s).
| Time | Temp. | Humidity | Pressure | Rain* | Wind** | Luminosity | Snow |
|---|---|---|---|---|---|---|---|
| 1777664704 | 16.11° C | 51% | 1066.2 hPa | 0 mm | - | 852 W/m² | - |
| 1777664400 | 16.11° C | 52% | 1066.3 hPa | 0 mm | - | 865 W/m² | - |
| 1777664098 | 16.11° C | 52% | 1066.2 hPa | 0 mm | - | 840 W/m² | - |
| 1777663796 | 16.11° C | 52% | 1066.4 hPa | 0 mm | - | 889 W/m² | - |
| 1777663493 | 16.11° C | 52% | 1066.8 hPa | 0 mm | - | 875 W/m² | - |
| 1777663190 | 16.11° C | 52% | 1066.6 hPa | 0 mm | - | 897 W/m² | - |
| 1777662887 | 16.11° C | 51% | 1066.7 hPa | 0 mm | - | 903 W/m² | - |
| 1777662584 | 16.67° C | 50% | 1066.6 hPa | 0 mm | - | 911 W/m² | - |
| 1777662280 | 16.11° C | 52% | 1067 hPa | 0 mm | - | 918 W/m² | - |
| 1777661975 | 16.11° C | 52% | 1066.9 hPa | 0 mm | - | 438 W/m² | - |
| 1777661672 | 16.11° C | 52% | 1067.1 hPa | 0 mm | - | 943 W/m² | - |
| 1777661368 | 15.56° C | 54% | 1067.3 hPa | 0 mm | - | 935 W/m² | - |
| 1777661064 | 15.56° C | 53% | 1067.4 hPa | 0 mm | - | 818 W/m² | - |
| 1777660759 | 15° C | 56% | 1067.6 hPa | 0 mm | - | 304 W/m² | - |
| 1777660457 | 15° C | 54% | 1067.5 hPa | 0 mm | - | 520 W/m² | - |
| 1777660153 | 15.56° C | 55% | 1067.5 hPa | 0 mm | - | 356 W/m² | - |
| 1777659850 | 15.56° C | 56% | 1067.6 hPa | 0 mm | - | 413 W/m² | - |
| 1777659546 | 15° C | 55% | 1067.9 hPa | 0 mm | - | 318 W/m² | - |
| 1777659243 | 14.44° C | 56% | 1067.8 hPa | 0 mm | - | 482 W/m² | - |
| 1777658941 | 13.89° C | 56% | 1067.9 hPa | 0 mm | - | 394 W/m² | - |
| 1777658637 | 14.44° C | 55% | 1067.9 hPa | 0 mm | - | 319 W/m² | - |
| 1777658334 | 14.44° C | 55% | 1067.8 hPa | 0 mm | - | 312 W/m² | - |
| 1777658030 | 14.44° C | 56% | 1068 hPa | 0 mm | - | 501 W/m² | - |
| 1777657727 | 13.89° C | 58% | 1068.2 hPa | 0 mm | - | 406 W/m² | - |
| 1777657425 | 13.89° C | 54% | 1068.2 hPa | 0 mm | - | 437 W/m² | - |
* Rain latest hour (hover to see other rain measurements)
** Current wind speed in m/s (hover to see current wind gust speed)